Spokane, WA

2:12 AM PDT on May 04, 2015 (GMT -0700)
Hayford | | Change Station
CLOSE
Current Station
Personal Weather Station
Location: Cheney, WA
Elevation: 2441 ft
Nearby Weather Stations

Elev 2441 ft 47.58 °N, 117.54 °W | Updated 22 seconds ago

Clear
Clear
40.8 °F
Feels Like 41 °F
N
0.0
Wind Variable Wind from West

Today
High -- | Low -- °F
--% Chance of Precip.
Yesterday
High -- | Low -- °F
Precip. -- in
5:28 AM 8:06 PM
Full, 100% visible
Pressure 29.87 in
Visibility 10.0 miles
Clouds Clear
Windchill 41 °F
Dew Point 28 °F
Humidity 59%
Rainfall 0.00 in
Snow Depth Not available.
UV 0 out of 12
Pollen 9.90 out of 12
Air Quality Not available.
Flu Activity Sporadic
METAR KSKA 040858Z AUTO 35003KT 10SM CLR 10/M05 A2987 RMK AO2 SLP114 T00971046 58004

More Conditions Fewer Conditions

Pressure 29.87 in
Visibility 10.0 miles
Clouds Clear
Windchill 41 °F
Dew Point 28 °F
Humidity 59%
Rainfall 0.00 in
Snow Depth Not available.
UV 0 out of 12
Pollen 9.90 out of 12
Air Quality Not available.
Flu Activity Sporadic
METAR KSKA 040858Z AUTO 35003KT 10SM CLR 10/M05 A2987 RMK AO2 SLP114 T00971046 58004

More Conditions Fewer Conditions

Nepal has a long way to go to dig out and rebuild from a devastating earthquake. We have teamed up with several charities and organizations to make contributing to the relief effort as easy as possible.
How you can help: Portlight Strategies | Red Cross

10-Day Weather Forecast

Almanac

Astronomy

May. 04, 2015 Rise Set
Actual Time
Civil Twilight
Nautical Twilight
Astronomical Twilight
Moon
Length of Visible Light
Length of Day
Tomorrow will be .
, % of the Moon is Illuminated

Today's Extremes

State Highs State Lows

Community

WunderPhotos

Upload Photos

1,818,550 photos uploaded!

WunderBlogs® & News

Nearby

Air Quality

  Air Quality AQ Index Pollutant
Not available.

Snow Depth

Station Depth Elevation

Earthquake Activity

City Distance Mag. Time & Date
Minimum magnitude displayed is 2.5.

Coastal Water Temperatures

Place Temperature

Stations

Nearby Weather Stations

Station Location Temp. Windchill Dew Point Humidity Wind Precip. Elev Updated Type